User: anonymous   Login
Location: Pedimozza
(42.0500°N, 9.3500°E)
Time: 19:49:55
(UTC+00:00)
Language:

Unknown - Orbit

View from above orbital plane
View from above orbital plane
View from above satellite
View from above satellite

Ground track
Ground track

The orbit data is extracted from the following two-line orbital elements,

1 44239U 19029E   19294.19735998  .00001116  00000-0  95994-4 0  9998
2 44239  53.0071 218.7760 0001993  93.2618 266.8598 15.05491596 22690
Epoch (UTC): 21 October 2019 04:44:11
Eccentricity: 0.0001993
inclination: 53.0071°
perigee height: 548 km
apogee height: 551 km
right ascension of ascending node: 218.7760°
argument of perigee: 93.2618°
revolutions per day: 15.05491596
mean anomaly at epoch: 266.8598°
orbit number at epoch: 2269

The dashed part of the orbit path shows where the satellite is in the earth's shadow,  

DLR